User: anonymous   Login
Location: Unspecified
(0.0000°N, 0.0000°E)
Time: 15:13:22
(UTC+00:00)
Language:

CSTB 1 - Orbit

View from above orbital plane
View from above orbital plane
View from above satellite
View from above satellite

Ground track
Ground track

The orbit data is extracted from the following two-line orbital elements,

1 31122U 07012F   18051.87477670 +.00000247 +00000-0 +58172-4 0  9990
2 31122 098.0573 008.6399 0079868 068.9588 292.0131 14.60666932577033
Epoch (UTC): 20 February 2018 20:59:40
Eccentricity: 0.0079868
inclination: 98.0573°
perigee height: 634 km
apogee height: 747 km
right ascension of ascending node: 8.6399°
argument of perigee: 68.9588°
revolutions per day: 14.60666932
mean anomaly at epoch: 292.0131°
orbit number at epoch: 57703

The dashed part of the orbit path shows where the satellite is in the earth's shadow,  

DLR